Change the Weather History Date:

Monday, May 13, 2013

  Actual Average Record
Temperature  
Mean Temperature 47 °F 53 °F  
Max Temperature 57 °F 64 °F 81 °F (1991)
Min Temperature 37 °F 41 °F 25 °F (1939)
Degree Days  
Heating Degree Days 18 12  
Month to date heating degree days 139 186  
Since 1 July heating degree days 7234 7584  
Cooling Degree Days 0 0  
Month to date cooling degree days 0 0  
Year to date cooling degree days 0 0  
Moisture  
Dew Point 33 °F    
Average Humidity 66    
Maximum Humidity 100    
Minimum Humidity 32    
Precipitation  
Precipitation 0.01 in 0.11 in 1.32 in (1938)
Month to date precipitation 0.83 1.46  
Year to date precipitation 7.56 13.87  
Snow  
Snow 0.00 in 0.00 in 0.00 in (2002)
Month to date snowfall 0.0 0.1  
Since 1 July snowfall 74.3 66.2  
Snow Depth 0.00 in    
Sea Level Pressure  
Sea Level Pressure 29.85 in    
Wind  
Wind Speed 6 mph (WSW)    
Max Wind Speed 17 mph    
Max Gust Speed 23 mph    
Visibility 10 miles    
Events      
T = Trace of Precipitation, MM = Missing Value Source: NWS Daily Summary

Daily Weather History Graph

Daily Weather History Graph

Search for Another Location

Airport or City:

Trip Planner

Search our weather history database for the weather conditions in past years. The results will help you decide how hot, cold, wet, or windy it might be!

Date:

Astronomy

May. 13, 2013 Rise Set
Actual Time 5:08 AM EDT 7:55 PM EDT
Civil Twilight 4:35 AM EDT 8:28 PM EDT
Nautical Twilight 3:52 AM EDT 9:11 PM EDT
Astronomical Twilight 3:02 AM EDT 10:02 PM EDT
Moon 7:50 AM EDT (5/13) 11:02 PM EDT (5/13)
Length of Visible Light 15h 53m
Length of Day
14h 46m
Waxing Crescent, 12% of the Moon is Illuminated
May 13
Waxing Crescent
May 18
First Quarter
May 25
Full
May 31
Last Quarter
Jun 8
New

Hourly Weather History & Observations

Time (EDT) Temp. Windchill Dew Point Humidity Pressure Visibility Wind Dir Wind Speed Gust Speed Precip Events Conditions
12:53 AM 45.0 °F 42.6 °F 43.0 °F 93% 29.71 in 10.0 mi WSW 4.6 mph - 0.01 in   Overcast
1:53 AM 45.0 °F 43.5 °F 44.1 °F 97% 29.72 in 10.0 mi WSW 3.5 mph - N/A   Mostly Cloudy
2:53 AM 42.1 °F 40.2 °F 41.0 °F 96% 29.73 in 10.0 mi WSW 3.5 mph - N/A   Clear
3:53 AM 39.0 °F - 37.9 °F 96% 29.73 in 10.0 mi Calm Calm - N/A   Clear
4:53 AM 37.9 °F 35.5 °F 36.0 °F 93% 29.75 in 10.0 mi WSW 3.5 mph - N/A   Partly Cloudy
5:53 AM 39.0 °F 34.8 °F 36.0 °F 89% 29.77 in 10.0 mi SSW 5.8 mph - N/A   Partly Cloudy
6:53 AM 42.1 °F 37.1 °F 37.0 °F 82% 29.78 in 10.0 mi SSW 8.1 mph - N/A   Partly Cloudy
7:53 AM 46.0 °F 41.9 °F 36.0 °F 68% 29.81 in 10.0 mi SW 8.1 mph - N/A   Partly Cloudy
8:53 AM 48.0 °F - 28.9 °F 48% 29.82 in 10.0 mi WSW 16.1 mph 21.9 mph N/A   Partly Cloudy
9:53 AM 48.0 °F - 30.0 °F 50% 29.83 in 10.0 mi West 10.4 mph 17.3 mph 0.01 in   Scattered Clouds
10:53 AM 51.1 °F - 32.0 °F 48% 29.85 in 10.0 mi WSW 10.4 mph - N/A   Mostly Cloudy
11:53 AM 52.0 °F - 30.0 °F 43% 29.85 in 10.0 mi SSW 12.7 mph 19.6 mph N/A   Mostly Cloudy
12:53 PM 52.0 °F - 30.0 °F 43% 29.86 in 10.0 mi West 8.1 mph - N/A   Mostly Cloudy
1:53 PM 53.1 °F - 28.0 °F 38% 29.86 in 10.0 mi SW 9.2 mph - N/A   Mostly Cloudy
2:53 PM 55.9 °F - 30.9 °F 39% 29.86 in 10.0 mi SSW 9.2 mph - N/A   Mostly Cloudy
4:53 PM 55.0 °F - 27.0 °F 34% 29.87 in 10.0 mi West 10.4 mph - N/A   Mostly Cloudy
5:53 PM 55.9 °F - 28.0 °F 34% 29.88 in 10.0 mi SW 12.7 mph 17.3 mph N/A   Mostly Cloudy
6:53 PM 53.1 °F - 27.0 °F 37% 29.90 in 10.0 mi WNW 5.8 mph - N/A   Mostly Cloudy
7:53 PM 48.2 °F - 30.2 °F 50% 29.92 in 10.0 mi Calm Calm - N/A   Mostly Cloudy
8:53 PM 50.0 °F - 28.0 °F 43% 29.96 in 10.0 mi Calm Calm - N/A   Mostly Cloudy
9:53 PM 48.0 °F - 32.0 °F 54% 29.99 in 10.0 mi Calm Calm - N/A   Overcast
10:53 PM 46.9 °F - 28.9 °F 50% 30.00 in 10.0 mi West 4.6 mph - N/A   Overcast
11:53 PM 44.1 °F 42.5 °F 30.0 °F 58% 29.99 in 10.0 mi NW 3.5 mph - N/A   Scattered Clouds